world map with FTTJ marked

FTTJ - Airport

This information may not be accurate or current and is not valid for navigation or flight planning. No warranty of fitness for any purpose is made or implied.

flag of Chad

Donate via PayPal

Additional information is available on the NEW Great Circle Mapper

Location
City:  N'Djamena, Chari-Baguirmi, Chad
ICAO / IATA:FTTJ / NDJ

Details
Type:Airport (Aerodrome, Airfield)
Use:Public/Civil, Military
Latitude:12°08'01"N (12.133689)
Longitude:15°02'02"E (15.034019)
Datum:WGS 1984
Elevation:968 ft (295 m)
Runways:1
Longest:9186 × 148 ft (2800 × 45 m)

Time
Timezone:UTC+1 (DST+3)
Local Time:

Weather
METAR:FTTJ  210000Z 00000KT CAVOK 21/04 Q1012 NOSIG
TAF:FTTJ  201700Z 2018/2124 34004KT 6000 NSC TEMPO 2100/2107 4000 HZ TEMPO 2108/2114 02010KT CAVOK

Related Locations
Nearby:
Farthest:NCNS: 12384 mi / 19930 km
Nassau, CK

Find:

   beyond  
but within

Other Information
Maps:
Sources:

  


 


Great Circle Mapper   Great Circle Mapper
Great Circle Mapper FAQ   Great Circle Mapper FAQ
  Karl's Home Page
KLSē   KLSē Home
   GC on Facebook
Airlines of the World   Airlines of the World
Donate via PayPal


Copyright © 2004-2019, Karl L. Swartz. All rights reserved.
All trademarks mentioned herein belong to their respective owners.

Please see credits for attribution and copyright information.

Karl Swartz <karl@kls2.com>
  Powered by FreeBSD
Valid HTML 4.01!
Labeled with ICRA
hCard Microformat
Geo Microformat